Helicity
125 153 191 167 220 303 388 343 337 230 135 75 93 53 58 126 94 92 110 57 32 22 35 41 53 54 54 41 47 88 117 132 127 159 146 111 129 136 102 182 188 175 204 204
114 124 145 69 -15 78 178 216 243 306 281 113 32 62 45 84 122 108 100 24 -30 23 42 49 46 46 78 89 51 72 83 91 103 139 139 127 107 124 154 101 142 157 198 204
79 -32 4 152 141 15 -150 -172 37 278 247 358 125 53 142 65 65 111 124 116 34 36 64 63 65 58 68 111 129 90 89 80 94 112 140 141 87 116 157 166 149 159 148 85
45 25 105 22 6 25 100 -48 -58 -222 -69 109 174 266 48 77 129 126 182 125 54 28 38 58 70 68 79 89 140 136 138 122 77 98 130 154 154 143 135 169 175 152 131 129
105 65 17 22 15 9 41 83 47 29 -29 -11 29 44 92 36 44 35 -0 90 5 38 50 74 94 96 99 109 115 138 171 172 128 100 98 119 121 129 133 134 153 141 143 135
38 38 17 7 18 58 47 73 125 61 -37 -2 66 87 49 -31 106 167 122 145 77 91 104 117 120 115 126 155 162 180 180 161 158 138 125 126 130 149 175 171 169 178 183 157
15 8 -10 135 56 66 52 55 117 102 103 49 31 35 69 174 145 170 165 168 177 175 168 165 148 138 167 189 202 170 153 169 170 162 159 163 164 162 153 161 156 151 148 150
-61 6 -16 -78 -186 -67 58 116 45 223 176 167 36 100 147 145 135 162 160 171 174 160 177 175 160 145 168 213 187 199 201 188 195 178 160 144 146 168 180 183 178 165 148 153
25 93 39 177 282 209 179 97 149 103 462 197 152 240 209 160 109 176 155 163 166 169 194 230 253 232 218 226 194 182 180 193 197 196 201 204 179 171 167 159 154 153 151 133
30 6 249 310 579 443 37 22 97 174 48 157 274 271 251 255 294 198 233 234 211 226 257 301 331 335 325 268 227 207 216 187 147 161 148 136 148 153 146 145 133 139 150 135
91 183 418 393 678 469 64 25 36 137 211 242 312 326 244 259 270 283 280 268 268 291 328 353 319 307 278 229 183 231 222 183 139 101 93 88 105 126 91 112 116 109 113 112
191 131 145 283 504 607 391 364 379 221 275 260 305 284 257 305 322 321 311 288 293 291 310 317 329 317 255 197 153 140 145 131 102 56 73 83 61 83 139 110 140 161 177 156
139 174 261 253 505 745 636 466 473 471 477 404 348 353 352 362 353 367 398 372 340 327 325 334 333 339 329 216 143 125 91 65 53 68 71 39 42 46 42 98 162 234 208 224
311 383 528 533 409 484 545 537 563 530 490 446 421 444 434 437 458 460 443 407 352 310 342 288 280 273 249 273 258 234 208 217 181 184 161 150 157 146 140 142 147 182 182 177
310 279 243 314 462 558 540 610 623 616 525 467 419 399 402 433 430 390 360 283 265 263 234 202 233 266 246 206 197 205 191 174 154 136 135 138 137 137 127 120 110 96 99 114
292 276 315 340 342 370 386 475 508 454 409 346 304 261 195 182 199 217 210 205 180 180 175 170 187 181 159 139 120 112 115 141 112 99 103 106 103 104 107 109 101 89 81 98
221 264 271 256 235 240 218 199 202 210 195 243 241 188 159 147 133 138 123 97 86 94 100 108 104 86 77 86 77 69 64 71 90 62 61 62 58 58 55 50 52 51 53 64
33 43 53 62 83 104 104 92 65 68 96 96 82 77 87 97 100 83 64 42 28 36 67 74 72 59 56 64 59 50 47 46 43 42 41 42 39 37 38 40 40 41 40 45
21 26 22 22 24 23 25 34 24 16 21 21 18 26 23 25 31 33 32 34 46 55 65 61 65 48 41 49 45 25 30 37 36 33 36 46 41 41 42 46 49 51 54 58
1 -7 -11 -9 -13 -11 -1 -6 2 3 6 9 12 20 27 33 37 35 26 17 24 34 41 49 47 45 46 47 63 32 31 28 29 27 25 26 30 34 38 51 59 67 76 85
7 -0 -7 -11 -14 -21 -19 -16 -8 -2 2 6 11 16 19 19 22 22 25 21 37 44 42 47 35 36 36 34 38 31 36 37 35 32 33 36 43 50 54 61 68 75 85 99
-24 -22 -22 -17 -20 -22 -22 -21 -13 -7 3 6 12 18 21 27 30 31 25 23 37 65 50 42 40 71 62 76 52 56 53 52 49 54 58 66 70 74 81 90 98 107 112 116
-30 -30 -27 -20 -15 -17 -15 -4 4 7 15 18 16 21 26 24 29 35 54 72 56 62 63 66 83 111 116 88 87 90 96 97 97 96 94 93 93 99 103 110 110 110 106 102
-14 -16 -17 -14 -6 -1 16 27 22 24 34 29 43 42 33 35 51 50 54 61 76 87 81 78 97 115 110 77 75 74 72 75 76 80 81 83 83 82 84 86 81 78 79 75
-29 -30 -29 -8 -1 9 21 30 23 31 39 39 44 39 41 38 37 35 36 44 61 73 62 80 92 99 83 81 80 76 75 76 76 69 71 74 72 71 70 70 69 65 56 55
42 41 39 27 28 20 28 21 29 39 38 50 60 54 46 50 45 51 52 54 52 52 55 56 56 60 67 65 70 77 79 85 86 81 73 71 67 66 58 54 50 49 46 41
31 31 34 43 41 40 29 27 33 31 33 37 38 42 47 42 43 49 51 44 43 47 44 44 45 49 47 51 57 60 59 62 61 64 64 65 67 62 53 47 44 41 39 39
Wind_Speed
99 101 110 116 110 108 102 99 96 99 104 90 80 60 48 43 45 54 60 54 51 50 50 50 47 42 42 47 39 39 44 59 73 63 62 66 80 76 70 64 73 62 61 63
110 107 110 128 122 119 119 113 108 114 112 108 88 88 90 62 60 59 60 60 55 54 54 51 49 46 40 43 44 40 43 48 57 61 60 68 74 75 73 72 69 72 65 54
111 105 104 120 120 131 127 119 108 117 107 96 100 85 80 73 72 70 66 64 60 58 55 53 49 46 42 38 45 44 48 49 52 52 56 61 78 74 74 75 72 67 67 62
89 92 105 101 100 115 127 133 114 107 110 106 99 93 79 72 76 74 72 67 59 56 52 50 49 45 43 40 37 39 46 48 50 53 52 53 60 69 70 74 67 70 68 65
62 72 89 92 86 97 107 124 132 124 108 99 100 97 104 91 87 88 70 59 54 48 45 45 44 42 39 37 38 36 38 41 47 49 51 52 54 54 58 65 65 68 66 70
69 82 90 88 77 83 89 120 110 112 116 117 94 99 101 88 62 55 54 49 44 39 37 38 40 39 38 38 37 38 40 40 43 43 43 47 48 49 49 50 54 57 59 65
65 73 71 56 82 80 73 73 78 96 96 93 102 94 70 46 42 42 41 36 29 29 32 34 35 34 36 39 40 39 36 36 36 37 37 38 40 44 43 43 43 47 50 52
42 58 56 72 80 62 73 91 85 83 87 92 93 67 49 32 24 23 23 20 19 21 25 29 30 31 32 34 34 33 32 32 32 32 31 30 29 32 34 35 37 40 42 44
29 35 67 62 74 84 85 84 83 71 74 72 36 38 31 24 13 13 14 12 14 17 20 26 28 29 28 30 29 27 27 28 29 30 31 31 29 29 29 33 34 38 40 42
34 17 47 60 63 55 43 58 66 62 31 21 18 13 15 15 6 7 9 11 13 16 20 23 27 27 27 27 26 24 25 26 27 27 27 27 28 30 30 34 36 38 41 43
23 17 46 33 46 22 15 37 46 3 7 10 12 12 13 8 4 4 8 13 15 17 20 23 26 27 29 29 26 25 26 27 28 29 29 28 29 31 29 31 33 34 36 37
1 31 21 15 24 25 15 5 12 23 24 20 17 18 12 6 4 7 10 13 16 18 21 25 27 29 30 30 29 28 29 31 33 32 34 34 32 32 33 31 32 33 36 37
18 21 21 23 34 36 27 24 26 23 20 27 19 20 15 15 15 16 17 18 20 21 24 27 27 30 33 32 31 32 33 35 36 37 38 37 36 35 34 33 34 38 39 39
36 30 30 40 26 34 32 32 34 38 41 35 35 27 23 23 22 20 20 20 21 23 25 27 29 32 35 35 34 34 34 35 37 38 38 38 38 38 38 39 40 42 41 41
38 37 33 34 41 40 38 34 38 36 34 38 34 34 29 28 23 24 21 23 25 27 29 29 32 37 39 38 36 36 36 36 36 35 36 36 37 37 38 39 39 40 42 42
29 32 37 39 37 39 37 37 37 31 32 31 34 31 32 24 26 20 22 24 25 27 30 35 37 39 40 39 38 38 38 39 38 37 37 37 38 38 39 39 40 40 42 44
33 38 36 36 35 34 33 36 32 31 33 32 30 30 29 27 25 26 28 31 33 34 37 38 39 40 41 42 42 41 40 41 41 39 40 40 40 40 40 40 40 41 42 45
35 34 37 40 41 39 35 35 35 37 36 35 34 33 31 30 31 33 36 35 36 38 41 42 43 43 43 45 44 44 44 44 44 44 44 44 44 43 44 44 44 45 46 47
40 41 42 42 43 42 41 40 40 39 38 38 37 36 37 37 38 38 39 40 41 42 46 47 47 46 47 47 48 47 48 48 48 48 48 49 49 48 49 49 50 51 51 52
49 49 49 49 49 49 48 47 46 45 45 44 43 43 44 44 45 45 45 43 45 48 50 51 51 51 52 52 55 52 53 53 53 52 53 53 53 54 54 55 56 57 57 58
62 61 59 59 58 57 56 56 55 54 54 52 52 52 52 52 53 53 52 51 53 55 56 55 55 56 58 59 58 58 58 58 58 59 59 60 60 60 60 60 61 62 63 63
67 67 67 66 66 64 63 62 61 60 60 59 58 58 60 60 60 59 56 54 59 61 61 57 58 64 65 66 60 61 61 62 62 62 63 63 64 66 66 65 66 65 65 65
73 73 72 71 71 70 68 66 66 65 65 65 64 64 65 65 64 66 66 63 63 64 64 61 65 70 71 65 63 64 65 65 65 65 66 66 66 66 66 66 66 66 65 64
76 75 75 73 72 71 72 71 71 68 67 67 65 65 65 66 66 63 65 66 68 69 67 67 70 73 73 66 66 66 67 67 67 67 67 68 66 65 64 64 62 60 59 59
76 76 73 73 73 72 73 72 72 69 70 69 69 65 65 62 66 67 65 66 69 70 69 70 71 70 66 66 66 66 66 66 66 67 67 66 66 64 62 58 57 57 57 57
74 72 71 70 69 68 69 69 70 70 70 69 69 69 61 64 65 66 67 68 68 68 66 65 64 64 65 65 65 65 64 64 64 63 63 63 61 60 58 56 54 54 53 52
67 68 67 67 63 64 65 67 67 68 67 66 68 67 63 66 67 67 67 66 64 63 63 61 62 65 64 63 63 62 61 60 61 61 61 61 59 57 56 54 54 52 52 53
Wind_Direction
277 277 274 273 274 271 269 268 268 268 265 263 264 270 271 282 277 273 279 290 300 305 305 305 306 306 299 290 287 278 269 258 255 256 258 261 251 250 255 256 252 256 252 257
279 279 276 271 269 268 267 266 267 267 267 260 262 261 260 273 274 277 278 285 290 297 299 298 299 302 304 292 286 284 274 269 262 260 259 257 255 253 252 256 256 256 256 259
281 280 280 271 268 265 265 263 263 262 262 264 259 261 261 264 268 273 277 282 285 291 294 293 296 301 302 301 286 285 281 275 270 266 263 261 255 258 253 252 255 260 258 264
285 286 278 280 274 267 264 260 259 260 259 259 259 262 263 265 265 271 275 279 284 290 289 288 289 296 301 300 297 290 284 283 278 272 270 267 263 257 255 253 258 258 257 260
298 292 293 286 283 276 269 260 254 254 255 258 258 261 259 262 267 270 272 280 281 285 286 284 289 294 301 305 301 299 293 289 283 279 274 272 269 267 264 259 261 260 262 263
302 295 289 287 302 296 281 261 256 249 250 249 257 255 257 267 273 273 273 277 278 281 286 289 290 295 298 303 306 301 298 295 291 288 284 278 274 272 272 271 269 269 269 268
284 281 283 319 311 297 272 272 275 253 247 247 248 255 269 268 269 273 272 270 276 283 290 296 298 301 302 302 302 304 306 303 299 297 294 287 281 279 278 277 278 276 275 275
262 272 293 301 297 302 281 270 270 261 251 259 258 255 252 256 263 266 262 269 286 294 300 307 312 311 311 309 311 312 312 311 307 305 304 303 300 292 287 286 285 283 284 284
247 253 280 280 277 271 255 243 239 251 254 252 239 228 231 229 246 263 262 282 300 308 316 322 326 323 319 317 322 325 323 322 321 316 310 308 304 305 301 296 293 291 290 290
280 274 291 297 301 291 230 186 215 229 240 215 199 199 208 214 235 254 285 301 312 322 327 331 333 331 326 331 333 338 336 336 336 332 328 325 320 313 307 304 302 300 296 292
277 288 308 319 335 340 203 186 186 243 153 151 128 108 109 136 203 293 318 326 331 334 338 341 339 338 334 332 335 332 334 333 333 334 332 336 336 326 325 326 319 312 309 307
214 312 316 332 352 3 17 49 150 102 99 94 101 96 93 83 30 9 348 343 348 347 345 344 342 339 335 332 333 329 325 322 322 324 322 322 322 327 342 344 342 337 328 319
339 323 345 346 1 7 29 45 57 73 85 81 76 72 64 50 32 25 10 1 356 355 354 349 347 342 334 333 332 330 324 316 313 314 314 316 314 314 314 325 341 338 335 330
358 360 11 11 17 16 29 34 42 47 49 55 51 48 44 41 31 23 13 3 2 4 359 354 350 350 342 339 336 334 326 325 320 316 314 314 313 313 313 312 313 318 326 328
360 5 7 8 17 21 23 25 34 35 34 37 37 38 35 32 25 21 11 10 6 7 3 356 355 352 349 349 349 346 340 338 334 329 323 322 320 321 321 320 320 321 322 324
349 357 2 10 9 12 16 18 24 25 24 23 24 23 24 19 18 10 4 358 356 352 347 352 353 349 347 347 349 348 345 345 342 339 336 334 331 329 328 327 327 326 326 325
338 348 351 355 355 357 3 3 6 5 7 8 6 6 6 3 0 354 351 354 356 354 349 346 344 342 345 344 346 345 340 336 337 336 335 333 334 333 332 331 329 329 330 330
332 331 335 339 342 342 343 347 349 353 353 351 352 352 349 343 340 342 345 345 349 350 345 341 338 339 340 340 337 336 334 332 331 329 328 328 327 327 327 326 326 325 325 325
329 329 329 330 330 330 331 332 334 335 336 339 338 340 341 341 338 337 336 339 338 336 335 334 334 337 336 337 334 333 330 328 327 325 323 321 321 322 321 321 320 320 320 319
325 326 326 325 326 326 323 323 322 324 326 327 328 330 330 330 331 330 331 335 336 330 328 328 330 330 330 330 327 327 325 324 323 322 321 320 319 318 317 316 316 315 314 314
325 324 324 324 324 324 324 323 321 319 319 322 322 322 321 323 324 324 323 323 326 327 326 327 328 328 326 326 323 322 320 319 318 316 315 315 315 314 314 313 313 312 311 310
321 321 320 322 322 322 322 322 322 321 320 318 318 318 318 318 319 320 323 322 323 323 323 325 325 322 320 320 322 320 319 318 317 316 315 314 313 312 311 311 311 311 311 312
320 320 319 320 319 318 319 320 320 320 318 317 316 315 315 315 318 316 315 321 322 321 321 322 320 319 318 319 318 317 316 316 315 315 314 314 313 312 312 312 312 312 312 313
320 320 319 319 319 318 317 318 318 318 318 317 319 319 317 315 317 319 318 318 318 318 318 317 317 316 316 317 316 315 315 314 314 314 314 313 313 313 312 312 313 314 314 315
318 318 319 319 317 317 317 317 316 316 316 315 315 317 318 319 315 317 319 319 318 318 317 317 317 317 318 317 316 315 315 314 314 313 313 313 313 312 312 312 312 313 314 315
320 320 320 319 319 319 319 319 318 318 317 317 317 317 320 320 319 318 318 317 318 317 318 319 319 319 318 318 317 316 316 316 316 315 314 314 314 313 312 312 313 314 315 317
326 324 323 323 324 323 322 320 320 319 319 318 317 317 319 319 318 318 318 318 319 319 320 320 320 319 318 318 317 317 318 318 316 315 314 313 312 311 310 310 311 312 313 315